{"data":{"norad_id":60924,"intl_designator":"2024-155A","name":"STARLINK-11239 [DTC]","alt_names":[],"object_type":"PAYLOAD","status":"ACTIVE","operator":null,"country":"US","launch_date":"2024-08-31","launch_site_code":"AFWTR","launch_vehicle":null,"mission":null,"orbit_class":"UNKNOWN","rcs_meters":null,"size_class":null,"mass_kg":null,"dimensions":null,"purposes":["comms"],"wikipedia_slug":null,"has_3d_model":false,"image_url":null,"decayed_at":null,"tle_current":{"epoch":"2026-05-25T04:41:52.591776Z","epoch_age_seconds":58240,"freshness":"FRESH","line1":"1 60924U 24155A   26145.19574759  .00014662  00000+0  12581-3 0  9991","line2":"2 60924  53.1580 324.4629 0001147 101.4982 258.6165 15.69681089100415","mean_motion":15.69681089,"eccentricity":0.0001147,"inclination_deg":53.158,"raan_deg":324.4629,"arg_perigee_deg":101.4982,"mean_anomaly_deg":258.6165,"bstar":0.00012581,"rev_number":10041,"period_min":91.738379858891,"perigee_km":359.03664144336,"apogee_km":360.58232636677,"semimajor_km":6737.9464839051,"source":"CELESTRAK","updated_at":"2026-05-25T13:38:19.316814Z"}}}